• MPC Preparation (Info)

  • MPEC 2023-B88 : 2023 BP1

    The following Minor Planet Electronic Circular may be linked-to from your own Web pages, but must not otherwise be redistributed electronically.

    A form allowing access to any MPEC is at the bottom of this page.


    Read MPEC 2023-B87 Read MPEC 2023-B89


    M.P.E.C. 2023-B88                              Issued 2023 January 24, 02:05 UT
    
         The Minor Planet Electronic Circulars contain information on unusual
             minor planets, routine data on comets and natural satellites,
             and occasional editorial announcements.  They are published
        on behalf of Division F of the International Astronomical Union by the
              Minor Planet Center, Smithsonian Astrophysical Observatory,
                              Cambridge, MA 02138, U.S.A.
    			  
                 Prepared using the Tamkin Foundation Computer Network
    
                                  MPC@CFA.HARVARD.EDU
                URL https://www.minorplanetcenter.net/    ISSN 1523-6714
    
                                    2023 BP1                                 
    
    
    Observations:
         K23B01P* C2023 01 21.42975310 01 18.540+21 13 22.59         20.95wUEB088F52
         K23B01P  C2023 01 21.44116210 01 16.391+21 14 51.06         20.65wUEB088F52
         K23B01P  C2023 01 21.45253210 01 14.238+21 16 18.61         21.04wUEB088F52
         K23B01P  C2023 01 21.54326210 00 56.765+21 27 50.38         20.66GVEB088F52
         K23B01P  C2023 01 21.54406710 00 56.613+21 27 56.24         20.63GVEB088F52
         K23B01P KC2023 01 21.94827110 00 01.89 +22 17 17.3          19.7 GXEB088I93
         K23B01P KC2023 01 21.95936110 00 00.04 +22 18 40.7          20.4 GXEB088I93
         K23B01P KC2023 01 21.96528309 59 58.95 +22 19 24.7          19.5 GXEB088I93
         K23B01P KC2023 01 21.97439809 59 57.065+22 20 21.44         20.3 GVEB088J95
         K23B01P KC2023 01 21.98248309 59 55.658+22 21 21.82         20.5 GVEB088J95
         K23B01P KC2023 01 22.21126009 59 24.39 +22 49 16.9          20.2 GXEB088858
         K23B01P KC2023 01 22.21955609 59 23.02 +22 50 18.0          20.6 GXEB088858
         K23B01P KC2023 01 24.03282609 54 55.30 +26 12 32.5          20.7 GVEB088L01
         K23B01P KC2023 01 24.03455309 54 54.97 +26 12 43.3          20.6 GVEB088L01
         K23B01P KC2023 01 24.03627109 54 54.63 +26 12 54.1          20.7 GVEB088L01
    
    Observer details:
    858 Tebbutt Observatory, Edgewood.  Observer F. B. Zoltowski.  0.51-m f/8.1
        Schmidt-Cassegrain + CCD.
    F52 Pan-STARRS 2, Haleakala.  Observers J. Bulger, T. Lowe, A. Schultz, I.
        Smith, K. Chambers, T. Dukes.  Measurers K. Chambers, S. Chastel, T. de
        Boer, J. Fairlamb, H. Gao, M. Huber, C.-C. Lin, E. Magnier, Y.
        Ramanjooloo, R. Wainscoat, R. Weryk.  1.8-m Ritchey-Chretien + CCD.
    I93 St Pardon de Conques.  Observer F. Losse.  0.40-m f/3.7 reflector + CCD.
    J95 Great Shefford.  Observer P. Birtwhistle.  0.41-m f/6.3 Schmidt-Cassegrain
        + CCD.
    L01 Visnjan Observatory, Tican.  Observer K. Korlevic.  1.0-m f/2.9 reflector
        + CCD.
    
    Orbital elements:
    2023 BP1                                                 Earth MOID = 0.0373 AU
    Epoch 2023 Feb. 25.0 TT = JDT 2460000.5                 Veres                   
    M  80.55115              (2000.0)            P               Q                  
    n   0.77564092     Peri.  283.77621     +0.72255336     -0.67410492             
    a   1.1731735      Node   118.85870     +0.68241430     +0.66002568             
    e   0.2425845      Incl.   10.08047     +0.11057741     +0.33158506             
    P   1.27           H   24.85          G   0.15           U   8                  
    Residuals in seconds of arc
    230121 F52  0.1+  0.0     230121 I93  0.2-  0.5-    230122 858  0.1+  0.7-
    230121 F52  0.0   0.1+    230121 I93  0.5+  0.2+    230122 858  0.4+  0.6-
    230121 F52  0.0   0.1-    230121 I93  0.5-  0.1+    230124 L01  0.5+  0.1-
    230121 F52  0.0   0.1+    230121 J95  0.0   0.1-    230124 L01  0.1+  0.0
    230121 F52  0.0   0.1-    230121 J95  0.3-  0.3+    230124 L01  0.5-  0.1+
    
    Ephemeris:
    2023 BP1                 a,e,i = 1.17, 0.24, 10                  q = 0.8886
    Date    TT    R. A. (2000) Decl.     Delta      r    Elong.  Phase     V
    2022 12 25    11 47 51.0 -65 04 15   0.08193 0.9606    71.4   104.0    23.2
    ...
    2023 01 09    10 35 12.0 -18 06 15   0.05987 1.0122   117.3    59.7    20.9
    ...
    2023 01 17    10 12 34.8 +10 08 06   0.07075 1.0424   144.8    32.9    20.6
    ...
    2023 01 23    09 57 24.0 +24 21 24   0.08814 1.0657   156.6    21.5    20.8
    2023 01 24    09 55 00.0 +26 09 34   0.09160 1.0697   157.7    20.4    20.8
    2023 01 25    09 52 38.7 +27 49 22   0.09519 1.0736   158.6    19.6    20.9
    ...
    2023 01 31    09 39 35.1 +35 21 34   0.1191  1.0974   159.3    18.5    21.4
    ...
    2023 02 08    09 25 36.3 +40 51 17   0.1562  1.1291   154.4    22.2    22.1
    ...
    2023 02 23    09 11 37.2 +43 57 29   0.2378  1.1875   142.8    30.2    23.4
    
    M. P. C. Staff               (C) Copyright 2023 MPC           M.P.E.C. 2023-B88
    


    Read MPEC 2023-B87 Read MPEC 2023-B89


    MPEC number:

    Enter an MPEC number in one of the following forms:

    • 1997-B01 (the full form)
    • J97B01 (the packed version of the full form)
    • B01 (the abbreviated form)